Date_UTC,IAGA,MLT,MLAT,IGRF_DECL,SZA,N,E,Z
2015-08-15 08:00:00,NAQ,5.93,65.75,-23.86,85.41,29.5,11.5,4.5
2015-08-15 08:01:00,NAQ,5.94,65.75,-23.86,85.30,29.0,10.6,4.7
2015-08-15 08:02:00,NAQ,5.96,65.75,-23.86,85.19,28.3,9.9,4.5
2015-08-15 08:03:00,NAQ,5.98,65.75,-23.86,85.07,27.9,10.1,4.6
2015-08-15 08:04:00,NAQ,5.99,65.75,-23.86,84.96,27.4,10.6,4.8
2015-08-15 08:05:00,NAQ,6.01,65.75,-23.86,84.85,26.3,10.7,4.0
2015-08-15 08:06:00,NAQ,6.03,65.75,-23.86,84.73,26.1,11.1,3.5
2015-08-15 08:07:00,NAQ,6.05,65.75,-23.86,84.62,25.7,10.5,3.3
2015-08-15 08:08:00,NAQ,6.06,65.75,-23.86,84.51,25.0,9.9,3.1
2015-08-15 08:09:00,NAQ,6.08,65.75,-23.86,84.39,24.3,10.5,2.6
2015-08-15 08:10:00,NAQ,6.10,65.75,-23.86,84.28,23.8,11.6,2.1
2015-08-15 08:11:00,NAQ,6.11,65.75,-23.86,84.17,23.7,12.5,1.7
2015-08-15 08:12:00,NAQ,6.13,65.75,-23.86,84.05,24.0,13.2,1.8
2015-08-15 08:13:00,NAQ,6.15,65.75,-23.86,83.94,24.4,14.7,2.5
2015-08-15 08:14:00,NAQ,6.16,65.75,-23.86,83.82,24.7,15.1,3.3
2015-08-15 08:15:00,NAQ,6.18,65.75,-23.86,83.71,24.4,15.1,3.1
2015-08-15 08:16:00,NAQ,6.20,65.75,-23.86,83.59,24.6,15.8,2.6
2015-08-15 08:17:00,NAQ,6.21,65.75,-23.86,83.48,26.1,15.4,2.9
2015-08-15 08:18:00,NAQ,6.23,65.75,-23.86,83.37,26.5,13.8,3.4
2015-08-15 08:19:00,NAQ,6.25,65.75,-23.86,83.25,26.3,13.6,3.5
2015-08-15 08:20:00,NAQ,6.26,65.75,-23.86,83.14,25.3,14.5,3.3
2015-08-15 08:21:00,NAQ,6.28,65.75,-23.86,83.02,24.4,15.0,2.6
2015-08-15 08:22:00,NAQ,6.30,65.75,-23.86,82.90,23.4,16.0,1.8
2015-08-15 08:23:00,NAQ,6.31,65.75,-23.86,82.79,23.9,17.2,2.1
2015-08-15 08:24:00,NAQ,6.33,65.75,-23.86,82.67,25.2,17.2,3.3
2015-08-15 08:25:00,NAQ,6.35,65.75,-23.86,82.56,26.7,16.3,5.0
2015-08-15 08:26:00,NAQ,6.36,65.75,-23.86,82.44,27.1,16.6,6.1
2015-08-15 08:27:00,NAQ,6.38,65.75,-23.86,82.33,26.7,16.7,6.2
2015-08-15 08:28:00,NAQ,6.40,65.75,-23.86,82.21,25.5,15.7,5.2
2015-08-15 08:29:00,NAQ,6.41,65.75,-23.86,82.09,27.1,17.0,5.6
2015-08-15 08:30:00,NAQ,6.43,65.75,-23.86,81.98,61.7,24.6,20.5
2015-08-15 08:31:00,NAQ,6.45,65.75,-23.86,81.86,74.1,10.5,41.3
2015-08-15 08:32:00,NAQ,6.46,65.75,-23.86,81.74,84.0,19.9,64.4
2015-08-15 08:33:00,NAQ,6.48,65.75,-23.86,81.63,64.6,14.2,61.5
2015-08-15 08:34:00,NAQ,6.50,65.75,-23.86,81.51,54.5,6.5,54.9
2015-08-15 08:35:00,NAQ,6.51,65.75,-23.86,81.39,52.5,10.7,52.2
2015-08-15 08:36:00,NAQ,6.53,65.75,-23.86,81.28,52.8,15.2,48.0
2015-08-15 08:37:00,NAQ,6.55,65.75,-23.86,81.16,48.8,3.9,40.8
2015-08-15 08:38:00,NAQ,6.56,65.75,-23.86,81.04,33.6,-5.6,28.3
2015-08-15 08:39:00,NAQ,6.58,65.75,-23.86,80.92,33.8,-3.8,19.3
2015-08-15 08:40:00,NAQ,6.60,65.75,-23.86,80.81,25.4,-7.6,7.5
2015-08-15 08:41:00,NAQ,6.61,65.75,-23.86,80.69,20.7,-9.5,0.3
2015-08-15 08:42:00,NAQ,6.63,65.75,-23.86,80.57,22.9,-7.5,-3.3
2015-08-15 08:43:00,NAQ,6.65,65.75,-23.86,80.45,25.2,-4.3,-5.0
2015-08-15 08:44:00,NAQ,6.66,65.75,-23.86,80.34,17.7,-4.6,-7.1
2015-08-15 08:45:00,NAQ,6.68,65.75,-23.86,80.22,11.9,-3.6,-13.0
2015-08-15 08:46:00,NAQ,6.70,65.75,-23.86,80.10,14.4,4.3,-12.4
2015-08-15 08:47:00,NAQ,6.71,65.75,-23.86,79.98,8.6,-0.1,-17.8
2015-08-15 08:48:00,NAQ,6.73,65.75,-23.86,79.86,6.7,9.1,-18.9
2015-08-15 08:49:00,NAQ,6.75,65.75,-23.86,79.75,10.0,8.6,-20.2
2015-08-15 08:50:00,NAQ,6.76,65.75,-23.86,79.63,6.6,9.3,-20.9
2015-08-15 08:51:00,NAQ,6.78,65.75,-23.86,79.51,10.9,18.4,-21.0
2015-08-15 08:52:00,NAQ,6.80,65.75,-23.86,79.39,12.5,15.3,-19.6
2015-08-15 08:53:00,NAQ,6.81,65.75,-23.86,79.27,14.6,10.9,-20.6
2015-08-15 08:54:00,NAQ,6.83,65.75,-23.86,79.15,8.3,6.0,-24.7
2015-08-15 08:55:00,NAQ,6.85,65.75,-23.86,79.03,9.6,11.4,-26.3
2015-08-15 08:56:00,NAQ,6.87,65.75,-23.86,78.91,8.9,12.8,-28.3
2015-08-15 08:57:00,NAQ,6.88,65.75,-23.86,78.80,14.0,18.5,-26.6
2015-08-15 08:58:00,NAQ,6.90,65.75,-23.86,78.68,15.6,13.4,-24.3
2015-08-15 08:59:00,NAQ,6.92,65.75,-23.86,78.56,18.5,8.7,-23.7
2015-08-15 09:00:00,NAQ,6.93,65.75,-23.86,78.44,13.3,8.5,-25.4
2015-08-15 09:01:00,NAQ,6.95,65.75,-23.86,78.32,14.6,12.4,-27.6
2015-08-15 09:02:00,NAQ,6.97,65.75,-23.86,78.20,16.6,15.3,-26.3
2015-08-15 09:03:00,NAQ,6.98,65.75,-23.86,78.08,17.8,15.8,-24.5
2015-08-15 09:04:00,NAQ,7.00,65.75,-23.86,77.96,14.8,8.9,-27.4
2015-08-15 09:05:00,NAQ,7.02,65.75,-23.86,77.84,11.9,9.3,-31.0
2015-08-15 09:06:00,NAQ,7.03,65.75,-23.86,77.72,9.7,8.9,-33.8
2015-08-15 09:07:00,NAQ,7.05,65.75,-23.86,77.60,5.7,11.2,-36.3
2015-08-15 09:08:00,NAQ,7.07,65.75,-23.86,77.48,10.3,21.1,-36.5
2015-08-15 09:09:00,NAQ,7.08,65.75,-23.86,77.36,20.7,19.3,-26.9
2015-08-15 09:10:00,NAQ,7.10,65.75,-23.86,77.24,14.8,15.4,-28.5
2015-08-15 09:11:00,NAQ,7.12,65.75,-23.86,77.12,25.8,18.3,-23.8
2015-08-15 09:12:00,NAQ,7.13,65.75,-23.86,77.00,20.8,9.9,-24.4
2015-08-15 09:13:00,NAQ,7.15,65.75,-23.86,76.88,23.6,8.2,-24.1
2015-08-15 09:14:00,NAQ,7.17,65.75,-23.86,76.76,24.6,7.1,-22.9
2015-08-15 09:15:00,NAQ,7.18,65.75,-23.86,76.64,29.4,9.3,-19.3
2015-08-15 09:16:00,NAQ,7.20,65.75,-23.86,76.52,27.0,3.4,-18.5
2015-08-15 09:17:00,NAQ,7.22,65.75,-23.86,76.40,30.7,8.0,-19.4
2015-08-15 09:18:00,NAQ,7.23,65.75,-23.86,76.28,27.5,0.4,-19.8
2015-08-15 09:19:00,NAQ,7.25,65.75,-23.86,76.16,16.1,-1.7,-25.1
2015-08-15 09:20:00,NAQ,7.27,65.75,-23.86,76.04,18.2,6.9,-26.7
2015-08-15 09:21:00,NAQ,7.28,65.75,-23.86,75.92,23.8,7.4,-22.7
2015-08-15 09:22:00,NAQ,7.30,65.75,-23.86,75.80,12.7,8.5,-26.2
2015-08-15 09:23:00,NAQ,7.32,65.75,-23.86,75.68,10.3,4.8,-28.3
2015-08-15 09:24:00,NAQ,7.33,65.75,-23.86,75.56,0.6,2.5,-32.5
2015-08-15 09:25:00,NAQ,7.35,65.75,-23.86,75.44,7.0,8.0,-31.1
2015-08-15 09:26:00,NAQ,7.37,65.75,-23.86,75.32,2.4,11.2,-28.5
2015-08-15 09:27:00,NAQ,7.39,65.75,-23.86,75.20,7.6,18.3,-18.2
2015-08-15 09:28:00,NAQ,7.40,65.75,-23.86,75.08,12.0,27.0,-9.8
2015-08-15 09:29:00,NAQ,7.42,65.75,-23.86,74.96,6.2,19.4,-6.2
2015-08-15 09:30:00,NAQ,7.44,65.75,-23.86,74.84,2.7,15.6,-14.6
2015-08-15 09:31:00,NAQ,7.45,65.75,-23.86,74.72,20.9,14.9,-9.3
2015-08-15 09:32:00,NAQ,7.47,65.75,-23.86,74.60,24.1,14.3,-6.5
2015-08-15 09:33:00,NAQ,7.49,65.75,-23.86,74.48,27.7,9.9,-4.0
2015-08-15 09:34:00,NAQ,7.50,65.75,-23.86,74.36,32.4,9.1,-5.9
2015-08-15 09:35:00,NAQ,7.52,65.75,-23.86,74.24,27.2,11.8,-7.2
2015-08-15 09:36:00,NAQ,7.54,65.75,-23.86,74.12,9.9,6.3,-17.0
2015-08-15 09:37:00,NAQ,7.55,65.75,-23.86,74.00,-3.1,-5.6,-31.3
2015-08-15 09:38:00,NAQ,7.57,65.75,-23.86,73.88,-15.8,-7.9,-46.3
2015-08-15 09:39:00,NAQ,7.59,65.75,-23.86,73.76,-17.3,-10.0,-52.6
2015-08-15 09:40:00,NAQ,7.60,65.75,-23.86,73.64,-16.5,-9.8,-56.8
2015-08-15 09:41:00,NAQ,7.62,65.75,-23.86,73.52,-17.4,-5.3,-57.1
2015-08-15 09:42:00,NAQ,7.64,65.75,-23.86,73.40,-11.6,-2.8,-53.6
2015-08-15 09:43:00,NAQ,7.65,65.75,-23.86,73.28,-4.0,-3.0,-46.7
2015-08-15 09:44:00,NAQ,7.67,65.75,-23.86,73.16,4.2,-0.7,-41.6
2015-08-15 09:45:00,NAQ,7.69,65.75,-23.86,73.04,17.6,1.2,-30.9
2015-08-15 09:46:00,NAQ,7.70,65.75,-23.86,72.92,13.2,-4.8,-30.1
2015-08-15 09:47:00,NAQ,7.72,65.75,-23.86,72.79,14.1,0.3,-30.3
2015-08-15 09:48:00,NAQ,7.74,65.75,-23.86,72.67,4.4,-4.1,-36.6
2015-08-15 09:49:00,NAQ,7.75,65.75,-23.86,72.55,-6.1,-2.9,-45.8
2015-08-15 09:50:00,NAQ,7.77,65.75,-23.86,72.43,-5.9,-11.1,-50.1
2015-08-15 09:51:00,NAQ,7.79,65.75,-23.86,72.31,-4.8,-8.8,-54.8
2015-08-15 09:52:00,NAQ,7.80,65.75,-23.86,72.19,-4.4,-8.6,-54.4
2015-08-15 09:53:00,NAQ,7.82,65.75,-23.86,72.07,-1.5,-1.7,-52.4
2015-08-15 09:54:00,NAQ,7.84,65.75,-23.86,71.95,3.4,-3.0,-47.0
2015-08-15 09:55:00,NAQ,7.85,65.75,-23.86,71.83,-4.5,-3.8,-52.4
2015-08-15 09:56:00,NAQ,7.87,65.75,-23.86,71.71,1.2,-6.2,-50.9
2015-08-15 09:57:00,NAQ,7.89,65.75,-23.86,71.59,0.4,4.6,-50.0
2015-08-15 09:58:00,NAQ,7.90,65.75,-23.86,71.47,5.2,2.7,-43.4
2015-08-15 09:59:00,NAQ,7.92,65.75,-23.86,71.35,9.1,9.4,-40.0
2015-08-15 10:00:00,NAQ,7.94,65.75,-23.86,71.23,15.7,3.6,-35.1
2015-08-15 10:01:00,NAQ,7.95,65.75,-23.86,71.11,16.3,11.2,-34.2
2015-08-15 10:02:00,NAQ,7.97,65.75,-23.86,70.99,8.6,-1.3,-37.4
2015-08-15 10:03:00,NAQ,7.99,65.75,-23.86,70.87,-3.5,-8.0,-52.7
2015-08-15 10:04:00,NAQ,8.00,65.75,-23.86,70.75,1.4,-11.7,-57.7
2015-08-15 10:05:00,NAQ,8.02,65.75,-23.86,70.63,-1.3,-11.1,-63.3
2015-08-15 10:06:00,NAQ,8.04,65.75,-23.86,70.51,8.1,-8.1,-55.6
2015-08-15 10:07:00,NAQ,8.05,65.75,-23.86,70.39,29.8,-7.1,-40.3
2015-08-15 10:08:00,NAQ,8.07,65.75,-23.86,70.27,3.8,-14.9,-50.2
2015-08-15 10:09:00,NAQ,8.09,65.75,-23.86,70.15,-7.7,-9.4,-59.5
2015-08-15 10:10:00,NAQ,8.10,65.75,-23.86,70.03,10.4,-7.8,-50.7
2015-08-15 10:11:00,NAQ,8.12,65.75,-23.86,69.92,-9.5,-14.4,-60.5
2015-08-15 10:12:00,NAQ,8.14,65.75,-23.86,69.80,-27.2,-28.4,-73.3
2015-08-15 10:13:00,NAQ,8.15,65.75,-23.86,69.68,-21.7,-19.4,-82.6
2015-08-15 10:14:00,NAQ,8.17,65.75,-23.86,69.56,-53.0,-21.0,-99.7
2015-08-15 10:15:00,NAQ,8.19,65.75,-23.86,69.44,-20.6,-16.9,-77.3
2015-08-15 10:16:00,NAQ,8.20,65.75,-23.86,69.32,-52.6,-23.0,-97.7
2015-08-15 10:17:00,NAQ,8.22,65.75,-23.86,69.20,-62.5,-21.9,-102.8
2015-08-15 10:18:00,NAQ,8.24,65.75,-23.86,69.08,-40.4,-13.5,-87.6
2015-08-15 10:19:00,NAQ,8.25,65.75,-23.86,68.96,-32.4,-9.6,-74.6
2015-08-15 10:20:00,NAQ,8.27,65.75,-23.86,68.84,-32.5,-15.1,-66.7
2015-08-15 10:21:00,NAQ,8.29,65.75,-23.86,68.72,-46.6,-23.5,-75.2
2015-08-15 10:22:00,NAQ,8.30,65.75,-23.86,68.61,-49.8,-22.6,-80.1
2015-08-15 10:23:00,NAQ,8.32,65.75,-23.86,68.49,-63.7,-23.1,-89.5
2015-08-15 10:24:00,NAQ,8.34,65.75,-23.86,68.37,-56.3,-27.6,-87.7
2015-08-15 10:25:00,NAQ,8.35,65.75,-23.86,68.25,-52.0,-32.4,-87.3
2015-08-15 10:26:00,NAQ,8.37,65.75,-23.86,68.13,-51.9,-36.0,-90.3
2015-08-15 10:27:00,NAQ,8.39,65.75,-23.86,68.01,-58.5,-33.6,-94.3
2015-08-15 10:28:00,NAQ,8.40,65.75,-23.86,67.90,-50.6,-36.0,-91.6
2015-08-15 10:29:00,NAQ,8.42,65.75,-23.86,67.78,-72.9,-41.7,-103.4
2015-08-15 10:30:00,NAQ,8.44,65.75,-23.86,67.66,-69.9,-43.8,-110.9
2015-08-15 10:31:00,NAQ,8.45,65.75,-23.86,67.54,-84.9,-47.2,-119.2
2015-08-15 10:32:00,NAQ,8.47,65.75,-23.86,67.42,-54.4,-45.9,-105.1
2015-08-15 10:33:00,NAQ,8.49,65.75,-23.86,67.31,-36.8,-44.0,-86.4
2015-08-15 10:34:00,NAQ,8.50,65.75,-23.86,67.19,-21.0,-27.8,-69.2
2015-08-15 10:35:00,NAQ,8.52,65.75,-23.86,67.07,-12.7,-21.4,-55.7
2015-08-15 10:36:00,NAQ,8.54,65.75,-23.86,66.95,-13.0,-7.4,-38.6
2015-08-15 10:37:00,NAQ,8.55,65.75,-23.86,66.84,6.4,-6.4,-18.9
2015-08-15 10:38:00,NAQ,8.57,65.75,-23.86,66.72,18.8,-19.2,-8.5
2015-08-15 10:39:00,NAQ,8.59,65.75,-23.86,66.60,-16.2,-14.8,-22.6
2015-08-15 10:40:00,NAQ,8.60,65.75,-23.86,66.48,-16.9,-22.7,-26.0
2015-08-15 10:41:00,NAQ,8.62,65.75,-23.86,66.37,-30.7,-36.6,-47.2
2015-08-15 10:42:00,NAQ,8.64,65.75,-23.86,66.25,-52.7,-35.3,-68.7
2015-08-15 10:43:00,NAQ,8.65,65.75,-23.86,66.13,-46.0,-35.4,-72.8
2015-08-15 10:44:00,NAQ,8.67,65.75,-23.86,66.02,-61.8,-39.0,-80.0
2015-08-15 10:45:00,NAQ,8.68,65.75,-23.86,65.90,-54.9,-33.1,-72.8
2015-08-15 10:46:00,NAQ,8.70,65.75,-23.86,65.79,-70.7,-35.9,-80.3
2015-08-15 10:47:00,NAQ,8.72,65.75,-23.86,65.67,-81.4,-28.9,-80.3
2015-08-15 10:48:00,NAQ,8.73,65.75,-23.86,65.55,-80.9,-20.0,-78.7
2015-08-15 10:49:00,NAQ,8.75,65.75,-23.86,65.44,-80.3,-10.9,-61.1
2015-08-15 10:50:00,NAQ,8.77,65.75,-23.86,65.32,-61.8,-7.3,-35.9
2015-08-15 10:51:00,NAQ,8.78,65.75,-23.86,65.21,-67.5,-12.3,-30.6
2015-08-15 10:52:00,NAQ,8.80,65.75,-23.86,65.09,-65.8,-20.2,-27.6
2015-08-15 10:53:00,NAQ,8.82,65.75,-23.86,64.98,-73.2,-15.5,-29.3
2015-08-15 10:54:00,NAQ,8.83,65.75,-23.86,64.86,-71.6,-22.0,-24.0
2015-08-15 10:55:00,NAQ,8.85,65.75,-23.86,64.75,-74.0,-35.8,-29.3
2015-08-15 10:56:00,NAQ,8.86,65.75,-23.86,64.63,-86.4,-20.2,-35.9
2015-08-15 10:57:00,NAQ,8.88,65.75,-23.86,64.52,-74.6,-17.9,-30.5
2015-08-15 10:58:00,NAQ,8.90,65.75,-23.86,64.40,-90.4,-25.9,-35.2
2015-08-15 10:59:00,NAQ,8.91,65.75,-23.86,64.29,-97.6,-16.8,-38.9
2015-08-15 11:00:00,NAQ,8.93,65.75,-23.86,64.17,-71.5,-21.7,-23.6
2015-08-15 11:01:00,NAQ,8.95,65.75,-23.86,64.06,-62.7,-17.6,-10.6
2015-08-15 11:02:00,NAQ,8.96,65.75,-23.86,63.95,-48.8,-0.7,9.4
2015-08-15 11:03:00,NAQ,8.98,65.75,-23.86,63.83,-52.0,13.9,21.7
2015-08-15 11:04:00,NAQ,8.99,65.75,-23.86,63.72,-54.1,18.1,32.2
2015-08-15 11:05:00,NAQ,9.01,65.75,-23.86,63.60,-57.5,28.7,35.1
2015-08-15 11:06:00,NAQ,9.03,65.75,-23.86,63.49,-65.4,26.6,34.1
2015-08-15 11:07:00,NAQ,9.04,65.75,-23.86,63.38,-71.4,22.9,27.9
2015-08-15 11:08:00,NAQ,9.06,65.75,-23.86,63.27,-75.7,23.0,22.6
2015-08-15 11:09:00,NAQ,9.08,65.75,-23.86,63.15,-67.4,24.5,22.9
2015-08-15 11:10:00,NAQ,9.09,65.75,-23.86,63.04,-67.4,17.5,26.3
2015-08-15 11:11:00,NAQ,9.11,65.75,-23.86,62.93,-82.7,16.3,21.5
2015-08-15 11:12:00,NAQ,9.12,65.75,-23.86,62.82,-100.7,26.3,9.8
2015-08-15 11:13:00,NAQ,9.14,65.75,-23.86,62.70,-84.4,42.6,17.7
2015-08-15 11:14:00,NAQ,9.16,65.75,-23.86,62.59,-68.7,29.1,34.0
2015-08-15 11:15:00,NAQ,9.17,65.75,-23.86,62.48,-108.0,33.9,14.7
2015-08-15 11:16:00,NAQ,9.19,65.75,-23.86,62.37,-131.3,46.7,-0.7
2015-08-15 11:17:00,NAQ,9.20,65.75,-23.86,62.26,-125.8,47.2,1.0
2015-08-15 11:18:00,NAQ,9.22,65.75,-23.86,62.15,-133.4,40.0,-3.0
2015-08-15 11:19:00,NAQ,9.24,65.75,-23.86,62.04,-138.0,51.7,-11.0
2015-08-15 11:20:00,NAQ,9.25,65.75,-23.86,61.93,-140.8,68.3,-4.2
2015-08-15 11:21:00,NAQ,9.27,65.75,-23.86,61.82,-144.6,74.1,4.8
2015-08-15 11:22:00,NAQ,9.28,65.75,-23.86,61.71,-152.5,65.9,2.9
2015-08-15 11:23:00,NAQ,9.30,65.75,-23.86,61.60,-165.7,72.8,-11.1
2015-08-15 11:24:00,NAQ,9.32,65.75,-23.86,61.49,-170.6,85.8,-12.9
2015-08-15 11:25:00,NAQ,9.33,65.75,-23.86,61.38,-185.3,88.0,-11.6
2015-08-15 11:26:00,NAQ,9.35,65.75,-23.86,61.27,-211.9,89.5,-20.5
2015-08-15 11:27:00,NAQ,9.36,65.75,-23.86,61.16,-212.5,101.2,-21.4
2015-08-15 11:28:00,NAQ,9.38,65.75,-23.86,61.05,-231.5,86.9,-24.9
2015-08-15 11:29:00,NAQ,9.40,65.75,-23.86,60.94,-253.2,69.3,-45.2
2015-08-15 11:30:00,NAQ,9.41,65.75,-23.86,60.83,-267.4,67.5,-61.0
2015-08-15 11:31:00,NAQ,9.43,65.75,-23.86,60.72,-270.3,53.2,-60.4
2015-08-15 11:32:00,NAQ,9.44,65.75,-23.86,60.62,-285.6,37.0,-66.4
2015-08-15 11:33:00,NAQ,9.46,65.75,-23.86,60.51,-293.9,24.6,-78.6
2015-08-15 11:34:00,NAQ,9.48,65.75,-23.86,60.40,-312.9,29.4,-91.9
2015-08-15 11:35:00,NAQ,9.49,65.75,-23.86,60.29,-312.7,28.7,-94.1
2015-08-15 11:36:00,NAQ,9.51,65.75,-23.86,60.19,-325.0,20.2,-86.8
2015-08-15 11:37:00,NAQ,9.52,65.75,-23.86,60.08,-342.0,14.8,-90.7
2015-08-15 11:38:00,NAQ,9.54,65.75,-23.86,59.97,-340.3,13.3,-89.5
2015-08-15 11:39:00,NAQ,9.55,65.75,-23.86,59.87,-365.2,-12.2,-104.6
2015-08-15 11:40:00,NAQ,9.57,65.75,-23.86,59.76,-380.7,-14.5,-121.9
2015-08-15 11:41:00,NAQ,9.59,65.75,-23.86,59.65,-367.8,-2.2,-121.0
2015-08-15 11:42:00,NAQ,9.60,65.75,-23.86,59.55,-355.4,5.1,-114.9
2015-08-15 11:43:00,NAQ,9.62,65.75,-23.86,59.44,-358.1,-0.6,-108.4
2015-08-15 11:44:00,NAQ,9.63,65.75,-23.86,59.34,-376.3,-17.1,-113.4
2015-08-15 11:45:00,NAQ,9.65,65.75,-23.86,59.23,-367.7,-17.3,-108.7
2015-08-15 11:46:00,NAQ,9.66,65.75,-23.86,59.13,-359.8,-30.1,-92.9
2015-08-15 11:47:00,NAQ,9.68,65.75,-23.86,59.03,-360.6,-31.9,-83.9
2015-08-15 11:48:00,NAQ,9.70,65.75,-23.86,58.92,-362.6,-31.5,-79.2
2015-08-15 11:49:00,NAQ,9.71,65.75,-23.86,58.82,-365.8,-26.2,-70.4
2015-08-15 11:50:00,NAQ,9.73,65.75,-23.86,58.71,-363.5,-23.4,-64.7
2015-08-15 11:51:00,NAQ,9.74,65.75,-23.86,58.61,-351.6,-11.7,-61.8
2015-08-15 11:52:00,NAQ,9.76,65.75,-23.86,58.51,-334.4,-27.1,-62.9
2015-08-15 11:53:00,NAQ,9.77,65.75,-23.86,58.41,-369.4,-6.7,-81.3
2015-08-15 11:54:00,NAQ,9.79,65.75,-23.86,58.30,-376.8,7.9,-86.2
2015-08-15 11:55:00,NAQ,9.80,65.75,-23.86,58.20,-388.8,-0.9,-76.0
2015-08-15 11:56:00,NAQ,9.82,65.75,-23.86,58.10,-394.9,2.5,-65.6
2015-08-15 11:57:00,NAQ,9.83,65.75,-23.86,58.00,-400.6,21.5,-38.7
2015-08-15 11:58:00,NAQ,9.85,65.75,-23.86,57.90,-449.2,-35.5,-14.5
2015-08-15 11:59:00,NAQ,9.87,65.75,-23.86,57.80,-472.7,-77.9,-52.2
2015-08-15 12:00:00,NAQ,9.88,65.75,-23.86,57.70,-474.5,-83.1,-84.2
2015-08-15 12:01:00,NAQ,9.90,65.75,-23.86,57.60,-474.0,-81.1,-107.5
2015-08-15 12:02:00,NAQ,9.91,65.75,-23.86,57.50,-470.9,-76.3,-118.4
2015-08-15 12:03:00,NAQ,9.93,65.75,-23.86,57.40,-452.0,-69.9,-121.0
2015-08-15 12:04:00,NAQ,9.94,65.75,-23.86,57.30,-465.7,-78.1,-125.0
2015-08-15 12:05:00,NAQ,9.96,65.75,-23.86,57.20,-444.5,-77.3,-138.5
2015-08-15 12:06:00,NAQ,9.97,65.75,-23.86,57.10,-417.4,-56.1,-124.4
2015-08-15 12:07:00,NAQ,9.99,65.75,-23.86,57.00,-394.4,-33.7,-113.2
2015-08-15 12:08:00,NAQ,10.00,65.75,-23.86,56.90,-389.4,-33.5,-105.5
2015-08-15 12:09:00,NAQ,10.02,65.75,-23.86,56.81,-373.0,-35.6,-79.9
2015-08-15 12:10:00,NAQ,10.03,65.75,-23.86,56.71,-420.9,-70.3,-129.3
2015-08-15 12:11:00,NAQ,10.05,65.75,-23.86,56.61,-405.5,-69.3,-153.9
2015-08-15 12:12:00,NAQ,10.06,65.75,-23.86,56.52,-388.3,-64.5,-165.8
2015-08-15 12:13:00,NAQ,10.08,65.75,-23.86,56.42,-360.6,-56.4,-150.8
2015-08-15 12:14:00,NAQ,10.09,65.75,-23.86,56.32,-349.8,-59.9,-136.4
2015-08-15 12:15:00,NAQ,10.11,65.75,-23.86,56.23,-342.8,-52.3,-136.6
2015-08-15 12:16:00,NAQ,10.12,65.75,-23.86,56.13,-364.3,-39.0,-157.2
2015-08-15 12:17:00,NAQ,10.14,65.75,-23.86,56.04,-343.9,-38.8,-158.0
2015-08-15 12:18:00,NAQ,10.16,65.75,-23.86,55.94,-375.7,-44.3,-172.2
2015-08-15 12:19:00,NAQ,10.17,65.75,-23.86,55.85,-393.5,-38.9,-190.6
2015-08-15 12:20:00,NAQ,10.19,65.75,-23.86,55.75,-383.3,-29.5,-182.9
2015-08-15 12:21:00,NAQ,10.20,65.75,-23.86,55.66,-343.0,-26.2,-161.0
2015-08-15 12:22:00,NAQ,10.22,65.75,-23.86,55.57,-319.3,-11.1,-131.2
2015-08-15 12:23:00,NAQ,10.23,65.75,-23.86,55.47,-306.8,-9.6,-108.0
2015-08-15 12:24:00,NAQ,10.25,65.75,-23.86,55.38,-311.8,-0.5,-100.1
2015-08-15 12:25:00,NAQ,10.26,65.75,-23.86,55.29,-318.5,5.1,-90.7
2015-08-15 12:26:00,NAQ,10.28,65.75,-23.86,55.20,-283.9,33.9,-67.8
2015-08-15 12:27:00,NAQ,10.29,65.75,-23.86,55.11,-263.1,62.5,-42.4
2015-08-15 12:28:00,NAQ,10.31,65.75,-23.86,55.02,-275.1,71.8,-25.3
2015-08-15 12:29:00,NAQ,10.32,65.75,-23.86,54.93,-301.0,37.9,-27.5
2015-08-15 12:30:00,NAQ,10.34,65.75,-23.86,54.84,-305.5,-19.9,-42.8
2015-08-15 12:31:00,NAQ,10.35,65.75,-23.86,54.75,-282.8,-51.0,-74.7
2015-08-15 12:32:00,NAQ,10.37,65.75,-23.86,54.66,-239.9,-27.3,-67.7
2015-08-15 12:33:00,NAQ,10.38,65.75,-23.86,54.57,-253.4,-25.2,-71.4
2015-08-15 12:34:00,NAQ,10.40,65.75,-23.86,54.48,-256.5,-20.3,-79.6
2015-08-15 12:35:00,NAQ,10.41,65.75,-23.86,54.39,-259.5,-13.8,-83.4
2015-08-15 12:36:00,NAQ,10.42,65.75,-23.86,54.30,-234.9,17.2,-68.4
2015-08-15 12:37:00,NAQ,10.44,65.75,-23.86,54.21,-228.8,15.2,-58.8
2015-08-15 12:38:00,NAQ,10.45,65.75,-23.86,54.13,-222.0,17.5,-49.0
2015-08-15 12:39:00,NAQ,10.47,65.75,-23.86,54.04,-229.5,18.5,-52.3
2015-08-15 12:40:00,NAQ,10.48,65.75,-23.86,53.95,-224.8,10.1,-52.2
2015-08-15 12:41:00,NAQ,10.50,65.75,-23.86,53.87,-209.6,18.9,-47.9
2015-08-15 12:42:00,NAQ,10.51,65.75,-23.86,53.78,-201.7,15.8,-43.9
2015-08-15 12:43:00,NAQ,10.53,65.75,-23.86,53.70,-203.4,13.6,-34.0
2015-08-15 12:44:00,NAQ,10.54,65.75,-23.86,53.61,-202.7,4.9,-32.8
2015-08-15 12:45:00,NAQ,10.56,65.75,-23.86,53.53,-175.9,8.0,-24.3
2015-08-15 12:46:00,NAQ,10.57,65.75,-23.86,53.45,-144.6,21.7,-3.5
2015-08-15 12:47:00,NAQ,10.59,65.75,-23.86,53.36,-142.8,19.0,18.5
2015-08-15 12:48:00,NAQ,10.60,65.75,-23.86,53.28,-147.1,11.7,16.8
2015-08-15 12:49:00,NAQ,10.62,65.75,-23.86,53.20,-172.0,-4.6,-0.2
2015-08-15 12:50:00,NAQ,10.63,65.75,-23.86,53.12,-156.8,-13.3,0.4
2015-08-15 12:51:00,NAQ,10.65,65.75,-23.86,53.03,-145.9,-30.7,3.2
2015-08-15 12:52:00,NAQ,10.66,65.75,-23.86,52.95,-137.0,-34.9,8.4
2015-08-15 12:53:00,NAQ,10.68,65.75,-23.86,52.87,-142.4,-42.4,11.4
2015-08-15 12:54:00,NAQ,10.69,65.75,-23.86,52.79,-149.7,-40.8,11.0
2015-08-15 12:55:00,NAQ,10.71,65.75,-23.86,52.71,-145.4,-40.3,15.0
2015-08-15 12:56:00,NAQ,10.72,65.75,-23.86,52.63,-130.1,-43.0,25.0
2015-08-15 12:57:00,NAQ,10.73,65.75,-23.86,52.55,-123.1,-37.7,29.3
2015-08-15 12:58:00,NAQ,10.75,65.75,-23.86,52.48,-108.0,-33.9,34.1
2015-08-15 12:59:00,NAQ,10.76,65.75,-23.86,52.40,-113.8,-27.1,37.6
2015-08-15 13:00:00,NAQ,10.78,65.75,-23.86,52.32,-119.5,-18.7,35.9
